Wind_Speed
72 72 68 57 58 57 56 54 59 57 60 66 65 53 56 49 45 40 41 37 42 41 42 40 44 41 34 32 30 29 30 29 32 31 29 27 28 30 29 31 34 33 35 33 20 19 13
68 67 64 60 58 60 59 58 57 60 63 62 58 53 50 51 47 43 45 41 43 46 46 41 41 38 34 34 24 28 25 28 27 27 29 31 32 29 34 30 30 27 25 20 23 24 25
71 68 65 64 58 60 57 58 58 59 61 59 56 53 51 53 49 45 42 43 42 48 47 43 37 37 33 35 28 24 25 25 26 20 20 20 23 22 22 30 32 24 22 17 27 28 36
73 72 72 69 66 62 64 63 62 63 64 60 59 56 52 52 51 42 43 46 45 46 49 40 36 36 36 34 28 28 23 27 27 24 21 21 20 21 18 18 18 17 16 21 33 33 39
78 72 79 73 68 66 69 71 74 71 66 63 60 56 50 53 53 48 49 47 42 45 48 40 37 35 39 37 34 28 25 29 22 18 22 21 19 20 18 18 21 25 24 27 35 40 37
77 76 81 74 73 74 75 76 79 79 71 67 63 57 50 52 55 52 48 47 42 43 45 40 39 38 38 36 32 29 30 32 29 30 22 25 29 25 26 14 18 17 21 23 27 36 41
83 71 71 75 76 79 80 82 85 86 79 70 69 63 59 57 58 55 49 41 43 43 48 40 37 40 35 37 32 33 30 29 33 32 31 32 39 35 38 41 37 36 43 42 36 43 44
80 72 76 80 80 80 85 86 87 86 84 72 71 67 60 57 56 55 45 39 39 44 51 42 39 41 39 35 35 32 32 32 34 40 37 32 41 37 39 39 37 34 34 45 48 52 57
80 81 83 85 87 87 90 91 88 85 80 75 70 68 61 58 52 45 46 43 46 43 43 50 45 41 40 39 39 34 33 36 42 40 37 33 39 35 39 36 36 39 42 46 46 49 59
85 88 91 92 94 94 91 89 87 81 78 72 68 65 60 55 54 46 48 44 45 42 41 46 46 47 44 42 41 39 41 44 41 42 36 40 46 49 51 52 50 47 54 52 51 49 51
95 97 96 95 94 93 88 84 83 77 75 68 65 61 56 56 52 45 46 46 42 40 41 39 45 45 45 44 45 45 50 44 46 49 48 54 58 59 64 59 58 57 60 57 60 58 58
102 99 86 80 82 81 83 82 76 73 69 67 65 56 53 55 49 43 43 42 39 38 43 44 44 46 45 47 50 51 52 53 54 58 56 54 64 70 62 65 68 72 71 71 70 68 77
98 91 82 80 81 84 81 75 75 69 62 56 54 53 54 52 48 45 44 42 37 41 47 44 43 47 45 44 45 51 55 52 54 54 57 63 66 69 66 65 65 70 76 80 78 87 85
91 86 85 78 75 75 73 72 69 65 55 51 54 54 52 48 46 45 42 41 37 43 47 51 41 40 46 52 60 61 55 57 59 60 63 65 64 69 67 67 74 81 86 85 96 96 95
83 73 76 78 72 69 60 58 56 51 53 56 52 52 52 47 48 49 45 38 40 47 50 48 55 47 49 55 56 58 59 57 62 66 70 67 72 72 75 77 84 89 92 99 108 107 105
76 75 73 68 67 59 56 55 49 52 52 55 55 55 53 53 54 57 45 40 43 52 55 54 52 56 57 63 66 67 66 59 63 67 67 74 81 79 79 82 84 89 99 110 112 113 110
73 73 67 63 64 65 54 47 51 54 59 56 54 57 53 52 62 45 46 46 51 54 61 58 60 62 63 67 65 67 67 67 70 71 84 87 87 84 88 95 101 106 114 116 114 108 112
83 74 62 56 61 62 55 51 53 58 56 54 55 57 59 59 56 51 50 56 56 61 66 64 67 64 67 74 72 69 70 77 77 82 86 88 94 91 95 100 109 116 111 106 110 122 127
78 59 62 61 62 61 61 57 56 55 53 57 59 55 57 60 61 54 57 59 61 69 67 69 69 72 75 75 79 80 88 88 89 92 95 95 101 103 103 114 118 107 107 118 125 133 134
82 73 59 60 58 58 54 60 56 56 57 59 65 61 63 64 65 65 66 68 71 73 72 73 75 77 77 81 85 91 96 97 96 98 104 113 109 106 114 115 119 122 124 127 137 140 145
74 79 75 68 59 61 59 57 60 59 58 63 61 64 63 63 64 65 74 70 77 80 78 79 84 82 89 98 102 105 105 109 112 108 108 113 117 116 116 121 123 127 130 138 141 149 153
80 81 78 78 73 66 65 61 61 66 65 70 68 66 71 71 74 79 85 78 81 80 84 86 86 92 103 107 110 108 109 109 114 117 119 120 121 125 125 132 134 139 137 145 148 149 152
83 82 84 68 63 64 68 66 72 70 68 67 70 70 75 73 76 78 78 80 80 85 89 90 95 105 110 110 110 113 121 119 124 127 130 134 136 139 136 141 148 146 148 148 147 153 142
90 89 83 76 67 67 68 70 74 74 75 75 76 74 79 80 83 88 91 92 86 93 95 99 104 106 107 111 115 121 125 128 133 135 138 141 143 149 153 154 160 157 152 155 153 132 122
98 95 93 80 73 77 78 83 87 84 84 81 83 85 82 86 93 95 94 94 95 99 102 109 113 111 111 116 121 122 130 136 139 142 145 151 154 160 163 166 164 160 156 136 120 115 109
113 106 101 87 81 86 89 84 85 84 85 87 89 89 89 92 91 90 94 99 101 108 114 111 113 118 119 121 128 136 140 146 145 147 152 157 162 167 170 167 156 129 122 113 102 96 98
122 114 108 105 92 94 94 88 84 81 80 83 86 83 88 91 94 100 104 105 109 113 117 114 116 119 128 137 136 138 141 148 153 157 160 164 170 175 166 151 126 113 104 97 94 85 79
119 108 103 105 102 96 94 97 95 95 87 86 88 94 97 100 107 109 112 118 121 123 122 124 131 136 140 142 142 148 152 160 162 166 168 172 170 151 124 116 111 102 91 88 82 75 68
113 109 100 97 100 97 99 100 97 94 97 98 98 102 105 110 116 120 119 123 129 134 137 139 143 146 148 154 155 157 158 162 168 173 158 141 125 114 105 97 91 86 80 73 68 65 60
Wind_Direction
271 274 279 279 274 275 278 280 284 288 289 289 293 292 299 309 311 305 309 308 310 306 316 311 317 313 304 291 289 294 298 305 301 290 299 290 295 295 280 289 284 272 286 287 257 253 268
270 273 277 277 272 277 278 283 285 288 288 291 291 293 298 301 306 303 305 307 308 308 312 317 316 305 295 290 284 292 307 309 302 289 289 287 291 289 267 265 268 276 285 277 261 260 268
270 274 277 282 275 276 284 289 292 294 292 294 292 293 296 300 304 301 303 306 306 311 308 315 312 297 286 287 282 289 311 319 309 288 291 295 289 304 294 277 276 277 280 281 268 269 278
270 272 276 283 283 282 288 290 293 295 296 292 293 295 294 299 302 298 298 303 306 306 304 308 306 296 284 283 278 283 299 313 311 284 283 298 299 306 301 282 274 281 271 273 284 281 286
269 274 272 278 286 286 289 292 296 296 293 291 293 294 295 297 298 298 305 306 306 296 304 301 303 290 286 281 275 276 285 299 307 309 282 304 301 302 321 287 291 280 275 267 274 279 277
266 272 271 277 285 286 287 291 295 296 292 292 290 295 296 300 297 296 303 304 307 293 299 301 294 291 285 282 272 269 284 288 289 296 287 290 296 292 303 304 303 303 296 274 283 286 286
266 265 260 272 280 282 286 287 291 294 293 292 293 293 296 296 296 293 301 298 295 294 292 299 287 284 283 284 275 273 281 288 287 295 289 289 289 283 286 286 286 291 284 280 278 288 300
262 260 258 270 275 278 285 286 290 290 291 293 293 291 297 296 292 295 300 292 293 294 291 292 284 277 281 276 274 271 278 282 287 292 295 284 287 285 289 289 291 292 301 280 277 279 283
257 257 258 267 272 275 280 284 287 285 287 290 290 289 294 291 289 293 293 289 291 289 284 285 283 280 274 274 273 273 278 280 285 292 289 295 295 308 301 299 297 288 300 288 287 299 290
255 259 261 265 270 273 278 282 283 283 286 287 287 286 289 286 284 291 282 288 292 287 280 280 284 283 277 274 275 276 277 279 282 288 303 300 306 304 303 297 305 300 295 290 292 300 303
256 259 263 261 268 276 278 279 280 280 283 285 284 284 284 281 289 284 276 288 290 287 275 272 284 285 283 279 280 279 284 288 285 292 301 289 295 304 299 294 292 296 306 301 296 298 306
255 261 264 260 266 273 276 278 278 281 281 281 282 277 280 283 283 281 281 283 288 290 277 274 270 280 281 284 288 285 290 288 285 287 301 293 296 301 305 295 295 299 306 306 302 300 312
257 255 258 257 266 273 275 275 279 280 281 277 272 277 278 283 276 281 289 283 294 301 283 276 273 273 279 286 293 290 285 283 283 289 294 291 291 295 292 293 294 298 297 301 305 304 305
254 257 255 260 266 271 273 277 280 283 281 275 271 272 277 280 271 286 291 286 296 295 288 281 285 281 278 278 287 295 303 283 285 287 288 288 290 296 296 293 294 295 298 301 305 304 301
251 248 260 261 263 273 268 273 274 264 262 270 270 272 285 274 271 286 292 297 286 287 296 286 287 291 289 291 288 287 291 289 284 284 287 287 294 298 291 293 295 296 298 300 301 299 299
242 251 252 256 265 262 259 269 264 261 263 269 270 274 285 278 276 282 295 293 283 293 298 299 293 288 286 290 291 279 291 291 287 288 290 293 299 299 290 291 293 295 299 302 299 299 300
242 245 255 257 258 255 261 266 260 258 265 266 276 281 282 273 284 282 293 284 282 290 296 296 291 290 283 288 293 292 285 290 297 294 293 296 297 296 292 293 294 300 304 302 300 299 301
242 248 250 249 252 255 253 265 261 261 265 268 276 279 282 280 282 282 283 280 283 292 294 293 293 291 287 293 292 295 291 294 294 295 296 302 298 298 301 298 302 308 303 300 303 305 306
234 235 249 247 244 250 254 259 257 260 261 272 275 275 274 275 282 275 279 282 287 296 294 294 292 294 294 292 293 296 301 299 304 296 300 301 302 304 296 302 306 306 305 304 303 307 309
242 234 229 236 242 250 256 252 257 256 262 269 273 273 270 274 277 275 275 284 294 295 293 291 293 295 296 294 295 300 305 305 304 303 302 303 305 302 306 307 306 306 305 306 306 307 305
229 232 230 233 241 246 247 249 254 255 263 267 265 264 268 273 275 277 280 289 292 291 291 288 286 290 292 298 301 302 301 302 303 304 303 304 307 306 306 307 305 305 306 306 303 304 307
231 235 229 237 239 241 246 249 250 257 255 258 262 265 263 267 268 270 280 283 286 285 283 286 286 291 295 297 297 299 302 304 305 307 307 307 305 306 308 306 305 307 307 302 307 308 308
223 223 234 231 237 240 246 251 253 251 252 255 259 264 267 267 266 271 280 282 281 282 283 284 288 294 296 295 297 298 300 303 305 307 306 307 307 307 306 305 305 307 305 308 305 304 305
225 225 227 234 233 239 244 247 252 255 257 257 259 257 261 264 266 270 279 281 281 282 282 284 291 294 292 293 294 297 299 301 303 304 305 307 306 305 305 306 308 309 306 305 305 304 305
225 226 230 237 236 238 241 249 253 258 258 258 260 263 262 264 270 274 277 277 283 285 286 289 293 292 291 294 294 295 298 300 302 303 303 302 305 306 309 308 305 306 305 304 303 303 301
223 224 226 229 232 241 243 248 252 259 257 256 260 262 267 269 270 274 275 278 282 283 285 290 291 290 292 292 293 297 299 299 300 302 303 305 304 303 303 303 306 303 301 299 300 301 296
219 222 226 232 236 243 245 247 247 253 255 257 258 261 263 264 268 273 277 279 282 284 287 290 289 288 290 294 296 296 297 298 300 301 298 298 300 303 305 305 302 300 297 300 298 296 295
220 225 232 235 236 241 245 248 251 252 254 252 253 257 260 263 273 276 276 279 281 283 283 284 286 289 293 294 295 295 296 298 297 299 299 299 302 301 300 300 298 297 299 298 297 297 295
222 227 231 232 236 244 246 248 249 252 255 257 260 262 266 267 271 273 276 278 280 282 282 284 287 288 290 291 293 294 297 298 298 299 302 301 299 298 298 297 297 297 298 296 297 294 294
Height
10802 10805 10809 10810 10810 10811 10811 10811 10812 10811 10810 10809 10808 10805 10802 10797 10793 10790 10788 10785 10782 10779 10776 10772 10769 10765 10764 10763 10758 10758 10755 10754 10751 10748 10747 10746 10746 10745 10742 10743 10744 10744 10743 10742 10740 10740 10741
10789 10792 10797 10799 10799 10800 10800 10800 10801 10801 10799 10800 10798 10797 10794 10789 10786 10784 10781 10778 10775 10773 10770 10767 10764 10759 10758 10756 10755 10752 10750 10747 10745 10743 10741 10740 10738 10736 10735 10736 10736 10737 10737 10736 10735 10734 10734
10776 10780 10784 10789 10788 10789 10789 10789 10790 10791 10790 10790 10789 10788 10786 10781 10778 10776 10773 10769 10766 10765 10761 10760 10757 10752 10752 10750 10748 10747 10745 10742 10740 10738 10736 10734 10731 10729 10728 10729 10728 10728 10732 10732 10728 10730 10727
10763 10768 10772 10774 10776 10776 10776 10777 10778 10780 10781 10780 10780 10779 10776 10773 10770 10768 10765 10761 10758 10756 10752 10753 10750 10747 10743 10745 10743 10741 10740 10738 10735 10732 10731 10731 10727 10725 10724 10724 10724 10724 10726 10727 10721 10723 10721
10749 10755 10758 10761 10762 10764 10764 10765 10766 10768 10770 10771 10769 10768 10766 10764 10762 10760 10757 10751 10751 10746 10744 10744 10742 10740 10736 10736 10737 10734 10734 10732 10731 10729 10726 10726 10723 10721 10720 10720 10719 10719 10721 10720 10717 10713 10713
10736 10741 10745 10747 10750 10751 10752 10751 10753 10756 10759 10761 10760 10758 10756 10754 10754 10750 10749 10743 10743 10737 10735 10736 10735 10731 10730 10727 10728 10727 10727 10726 10725 10725 10722 10720 10718 10716 10714 10713 10713 10713 10711 10710 10710 10707 10705
10721 10727 10730 10734 10737 10739 10741 10740 10741 10743 10747 10749 10748 10747 10746 10744 10743 10741 10739 10736 10732 10731 10722 10729 10728 10723 10722 10719 10719 10719 10718 10718 10717 10716 10716 10714 10708 10708 10707 10705 10705 10703 10704 10701 10696 10692 10690
10706 10713 10717 10720 10724 10726 10727 10728 10729 10731 10733 10736 10736 10734 10735 10733 10731 10730 10729 10727 10728 10723 10708 10719 10718 10716 10712 10712 10709 10709 10709 10709 10709 10707 10707 10707 10699 10701 10699 10696 10694 10690 10690 10688 10685 10680 10672
10691 10698 10702 10707 10709 10713 10714 10716 10717 10718 10722 10724 10724 10721 10722 10723 10720 10719 10717 10718 10719 10717 10710 10698 10703 10706 10706 10703 10701 10700 10699 10698 10698 10697 10697 10697 10688 10689 10687 10684 10681 10677 10676 10673 10670 10666 10656
10677 10683 10687 10692 10696 10698 10702 10702 10702 10706 10709 10711 10711 10708 10709 10711 10709 10709 10706 10707 10707 10706 10703 10691 10691 10690 10692 10694 10692 10691 10691 10688 10689 10687 10688 10685 10679 10679 10675 10669 10664 10665 10657 10654 10652 10652 10650
10659 10667 10674 10679 10680 10683 10686 10686 10689 10693 10696 10696 10696 10695 10697 10698 10698 10699 10693 10696 10696 10695 10690 10690 10680 10680 10678 10680 10680 10682 10681 10680 10677 10677 10675 10673 10667 10663 10658 10653 10646 10647 10641 10637 10632 10632 10635
10640 10648 10656 10661 10664 10666 10671 10672 10675 10680 10682 10682 10683 10683 10685 10685 10684 10686 10686 10684 10684 10682 10677 10673 10673 10669 10669 10668 10668 10669 10668 10665 10664 10662 10660 10657 10647 10641 10642 10634 10627 10621 10617 10616 10608 10604 10615
10622 10630 10640 10644 10648 10651 10656 10659 10661 10665 10667 10668 10669 10672 10672 10672 10671 10672 10673 10674 10673 10670 10660 10663 10663 10662 10659 10656 10658 10655 10655 10653 10649 10648 10646 10641 10637 10630 10626 10620 10613 10605 10599 10596 10597 10586 10591
10606 10613 10624 10629 10632 10636 10641 10645 10647 10649 10652 10654 10658 10659 10658 10658 10658 10660 10661 10663 10663 10659 10652 10647 10652 10651 10652 10647 10643 10642 10639 10638 10633 10631 10627 10624 10623 10612 10606 10600 10593 10584 10576 10565 10566 10564 10565
10592 10598 10605 10613 10618 10622 10628 10631 10634 10635 10638 10641 10643 10644 10646 10644 10643 10645 10649 10652 10648 10641 10640 10640 10634 10636 10637 10632 10629 10627 10625 10621 10618 10613 10607 10603 10602 10595 10589 10585 10577 10566 10557 10547 10536 10540 10529
10577 10585 10592 10600 10605 10611 10615 10619 10620 10622 10625 10627 10627 10629 10632 10631 10629 10630 10635 10637 10633 10625 10622 10626 10625 10623 10620 10613 10607 10607 10607 10606 10598 10593 10585 10583 10580 10577 10566 10563 10555 10545 10536 10524 10515 10501 10493
10563 10573 10580 10588 10593 10598 10603 10606 10608 10609 10611 10611 10611 10612 10619 10616 10612 10617 10620 10620 10618 10615 10608 10607 10604 10605 10602 10598 10595 10590 10588 10583 10577 10574 10565 10560 10558 10562 10551 10542 10533 10525 10517 10496 10483 10477 10463
10550 10561 10570 10575 10581 10585 10590 10593 10595 10596 10597 10597 10595 10595 10598 10598 10597 10603 10603 10600 10603 10600 10594 10589 10585 10582 10581 10577 10574 10569 10564 10562 10563 10555 10547 10542 10533 10536 10530 10514 10505 10498 10486 10471 10449 10447 10437
10539 10551 10557 10564 10569 10573 10577 10582 10583 10584 10584 10583 10580 10581 10581 10581 10583 10586 10586 10584 10585 10583 10579 10573 10568 10567 10563 10558 10550 10552 10550 10544 10540 10530 10526 10518 10511 10509 10506 10487 10476 10468 10456 10446 10426 10413 10406
10525 10536 10545 10551 10556 10559 10566 10569 10569 10572 10571 10569 10567 10567 10569 10568 10569 10568 10567 10571 10569 10565 10560 10558 10555 10550 10545 10542 10539 10532 10528 10523 10517 10509 10504 10493 10485 10478 10472 10455 10438 10439 10433 10414 10395 10378 10363
10511 10521 10530 10537 10543 10549 10553 10557 10557 10557 10560 10556 10554 10555 10558 10557 10555 10551 10549 10552 10550 10545 10543 10541 10540 10536 10529 10522 10517 10512 10505 10498 10495 10483 10471 10460 10457 10446 10441 10430 10421 10413 10409 10394 10373 10356 10328
10496 10506 10515 10521 10530 10535 10540 10544 10542 10547 10547 10544 10544 10544 10542 10543 10541 10539 10538 10540 10536 10532 10527 10525 10519 10515 10509 10504 10496 10489 10482 10473 10466 10457 10446 10434 10429 10422 10429 10398 10388 10393 10384 10357 10343 10321 10311
10482 10492 10499 10505 10515 10522 10526 10527 10529 10531 10532 10531 10532 10530 10526 10528 10527 10525 10525 10521 10518 10513 10510 10506 10502 10495 10488 10480 10471 10464 10458 10449 10440 10431 10419 10407 10395 10386 10397 10381 10362 10370 10341 10325 10313 10299 10280
10467 10477 10484 10492 10501 10507 10510 10512 10514 10516 10518 10521 10519 10516 10514 10512 10512 10508 10508 10504 10498 10495 10489 10486 10482 10476 10467 10459 10450 10443 10434 10426 10418 10410 10393 10382 10370 10356 10350 10344 10328 10321 10306 10292 10276 10259 10247
10453 10462 10470 10479 10485 10490 10494 10495 10499 10505 10506 10505 10505 10503 10502 10500 10496 10494 10489 10486 10480 10474 10470 10465 10461 10453 10445 10438 10428 10420 10413 10401 10393 10382 10373 10352 10339 10318 10306 10297 10290 10292 10262 10252 10236 10228 10218
10436 10443 10452 10459 10468 10473 10477 10482 10484 10488 10490 10490 10489 10489 10489 10482 10480 10475 10470 10467 10461 10452 10446 10444 10439 10428 10420 10414 10404 10393 10385 10373 10364 10352 10340 10322 10307 10296 10289 10266 10259 10246 10228 10219 10210 10206 10186
10412 10422 10434 10443 10451 10454 10461 10466 10470 10472 10472 10473 10473 10473 10468 10464 10460 10456 10452 10443 10438 10429 10424 10423 10413 10405 10397 10388 10378 10368 10360 10342 10338 10324 10311 10295 10274 10253 10233 10220 10213 10208 10198 10191 10181 10173 10162
10397 10412 10422 10431 10437 10441 10447 10452 10455 10457 10457 10456 10453 10450 10448 10445 10440 10435 10431 10424 10415 10410 10404 10399 10390 10384 10374 10362 10352 10339 10332 10319 10305 10290 10273 10260 10245 10232 10214 10199 10183 10173 10173 10163 10150 10141 10139
10386 10404 10411 10419 10423 10427 10433 10437 10441 10441 10440 10440 10438 10435 10430 10425 10419 10413 10407 10400 10392 10383 10379 10372 10364 10358 10349 10338 10327 10314 10302 10286 10271 10261 10237 10223 10205 10198 10186 10177 10161 10153 10146 10139 10131 10123 10118